When you browse on this site, cookies collect data to enhance your experience and personalize the content and advertising you see.
Visit our Privacy Policy to learn more. By continuing to use the site, you agree to this use of cookies and data.
  • En España
  • Lista de países
  • Para 7 días
  • Temperatura del agua
  • El tiempo en el mapa
  • Informadores
  • user-avatar
    Iniciar sesión

    Tiempo cada hora Tibissa

    Hoy, 25 Agosto, Domingo

    Tiempo Temperatura Precipitaciones Viento Presión Humedad
    00:00 +24°C° 0 mm 1 mps 687 mmHg 69%
    01:00 +25°C° 0 mm 1 mps 687 mmHg 65%
    02:00 +25°C° 0 mm 1 mps 687 mmHg 66%
    03:00 +25°C° 0 mm 1 mps 687 mmHg 66%
    04:00 +24°C° 0 mm 1 mps 686 mmHg 67%
    05:00 +24°C° 0 mm 1 mps 687 mmHg 66%
    06:00 +24°C° 0 mm 1 mps 687 mmHg 65%
    07:00 +25°C° 0 mm 1 mps 687 mmHg 62%
    08:00 +26°C° 0 mm 1 mps 687 mmHg 56%
    09:00 +27°C° 0 mm 2 mps 688 mmHg 49%
    10:00 +28°C° 0 mm 2 mps 688 mmHg 43%
    11:00 +28°C° 0 mm 2 mps 688 mmHg 41%
    12:00 +29°C° 0 mm 2 mps 687 mmHg 39%
    13:00 +30°C° 0 mm 3 mps 687 mmHg 36%
    14:00 +30°C° 0 mm 2 mps 687 mmHg 35%
    15:00 +31°C° 0 mm 2 mps 687 mmHg 34%
    16:00 +31°C° 0 mm 2 mps 687 mmHg 33%
    17:00 +30°C° 0 mm 2 mps 687 mmHg 35%
    18:00 +30°C° 0 mm 2 mps 687 mmHg 37%
    19:00 +29°C° 0 mm 2 mps 686 mmHg 40%
    20:00 +28°C° 0 mm 2 mps 687 mmHg 44%
    21:00 +28°C° 0 mm 2 mps 687 mmHg 47%
    22:00 +27°C° 0 mm 3 mps 687 mmHg 51%
    23:00 +27°C° 0 mm 3 mps 687 mmHg 52%

    Mañana, 26 Agosto, Lunes

    Tiempo Temperatura Precipitaciones Viento Presión Humedad
    00:00 +26°C° 0 mm 2 mps 687 mmHg 53%
    01:00 +26°C° 0 mm 2 mps 687 mmHg 54%
    02:00 +26°C° 0 mm 2 mps 686 mmHg 54%
    03:00 +25°C° 0 mm 1 mps 686 mmHg 54%
    04:00 +25°C° 0 mm 1 mps 686 mmHg 54%
    05:00 +25°C° 0 mm 1 mps 686 mmHg 52%
    06:00 +25°C° 0 mm 1 mps 687 mmHg 50%
    07:00 +25°C° 0 mm 2 mps 687 mmHg 48%
    08:00 +27°C° 0 mm 2 mps 687 mmHg 43%
    09:00 +28°C° 0 mm 3 mps 688 mmHg 39%
    10:00 +30°C° 0 mm 4 mps 688 mmHg 35%
    11:00 +30°C° 0 mm 4 mps 688 mmHg 33%
    12:00 +32°C° 0 mm 4 mps 688 mmHg 31%
    13:00 +33°C° 0 mm 4 mps 688 mmHg 29%
    14:00 +34°C° 0 mm 3 mps 687 mmHg 27%
    15:00 +34°C° 0 mm 3 mps 687 mmHg 26%
    16:00 +34°C° 0 mm 2 mps 687 mmHg 25%
    17:00 +34°C° 0 mm 2 mps 687 mmHg 27%
    18:00 +32°C° 0 mm 2 mps 686 mmHg 29%
    19:00 +32°C° 0 mm 2 mps 686 mmHg 30%
    20:00 +31°C° 0 mm 2 mps 687 mmHg 33%
    21:00 +30°C° 0 mm 2 mps 687 mmHg 37%
    22:00 +29°C° 0 mm 3 mps 687 mmHg 40%
    23:00 +28°C° 0 mm 2 mps 687 mmHg 43%

    Pasado mañana, 27 Agosto, Martes

    Tiempo Temperatura Precipitaciones Viento Presión Humedad
    00:00 +27°C° 0 mm 2 mps 687 mmHg 47%
    01:00 +27°C° 0 mm 2 mps 687 mmHg 50%
    02:00 +26°C° 0 mm 2 mps 687 mmHg 52%
    03:00 +26°C° 0 mm 2 mps 686 mmHg 53%
    04:00 +26°C° 0 mm 2 mps 686 mmHg 55%
    05:00 +26°C° 0 mm 2 mps 686 mmHg 53%
    06:00 +26°C° 0 mm 2 mps 687 mmHg 52%
    07:00 +26°C° 0 mm 2 mps 687 mmHg 50%
    08:00 +28°C° 0 mm 3 mps 687 mmHg 44%
    09:00 +29°C° 0 mm 4 mps 688 mmHg 38%
    10:00 +32°C° 0 mm 5 mps 689 mmHg 32%
    11:00 +33°C° 0 mm 5 mps 689 mmHg 30%
    12:00 +34°C° 0 mm 5 mps 689 mmHg 28%
    13:00 +34°C° 0 mm 5 mps 689 mmHg 26%
    14:00 +35°C° 0 mm 4 mps 688 mmHg 26%
    15:00 +35°C° 0 mm 4 mps 688 mmHg 25%
    16:00 +35°C° 0 mm 3 mps 688 mmHg 24%
    17:00 +34°C° 0 mm 4 mps 687 mmHg 30%
    18:00 +32°C° 0 mm 4 mps 687 mmHg 37%
    19:00 +30°C° 0 mm 5 mps 687 mmHg 43%
    20:00 +29°C° 0.1 mm 4 mps 687 mmHg 47%
    21:00 +28°C° 0.1 mm 4 mps 687 mmHg 52%
    22:00 +26°C° 0.1 mm 4 mps 688 mmHg 57%
    23:00 +26°C° 0 mm 3 mps 687 mmHg 58%

    28 Agosto, Miércoles

    Tiempo Temperatura Precipitaciones Viento Presión Humedad
    00:00 +26°C° 0 mm 2 mps 687 mmHg 59%
    01:00 +26°C° 0 mm 1 mps 687 mmHg 60%
    02:00 +25°C° 0 mm 1 mps 687 mmHg 60%
    03:00 +25°C° 0 mm 1 mps 686 mmHg 60%
    04:00 +25°C° 0 mm 1 mps 686 mmHg 60%
    05:00 +26°C° 0 mm 1 mps 686 mmHg 60%
    06:00 +26°C° 0 mm 1 mps 687 mmHg 59%
    07:00 +26°C° 0 mm 2 mps 687 mmHg 58%
    08:00 +28°C° 0 mm 2 mps 687 mmHg 50%
    09:00 +29°C° 0 mm 2 mps 688 mmHg 43%
    10:00 +31°C° 0 mm 3 mps 688 mmHg 35%
    11:00 +32°C° 0 mm 4 mps 688 mmHg 33%
    12:00 +33°C° 0 mm 5 mps 688 mmHg 31%
    13:00 +34°C° 0 mm 6 mps 688 mmHg 28%
    14:00 +33°C° 0.1 mm 5 mps 688 mmHg 30%
    15:00 +33°C° 0.1 mm 5 mps 687 mmHg 31%
    16:00 +32°C° 0.1 mm 5 mps 687 mmHg 32%
    17:00 +30°C° 0 mm 4 mps 687 mmHg 37%
    18:00 +29°C° 0 mm 3 mps 687 mmHg 41%
    19:00 +28°C° 0 mm 3 mps 687 mmHg 46%
    20:00 +27°C° 0 mm 3 mps 687 mmHg 50%
    21:00 +26°C° 0 mm 3 mps 687 mmHg 54%
    22:00 +25°C° 0 mm 3 mps 687 mmHg 58%
    23:00 +24°C° 0 mm 2 mps 687 mmHg 60%

    29 Agosto, Jueves

    Tiempo Temperatura Precipitaciones Viento Presión Humedad
    00:00 +24°C° 0 mm 2 mps 687 mmHg 62%
    01:00 +24°C° 0 mm 1 mps 687 mmHg 64%
    02:00 +24°C° 0 mm 1 mps 687 mmHg 65%
    03:00 +21°C° 0 mm 0 mps 687 mmHg 66%
    04:00 +21°C° 0 mm 0 mps 686 mmHg 67%
    05:00 +21°C° 0 mm 0 mps 687 mmHg 64%
    06:00 +22°C° 0 mm 0 mps 687 mmHg 61%
    07:00 +22°C° 0 mm 0 mps 687 mmHg 58%
    08:00 +23°C° 0 mm 0 mps 688 mmHg 52%
    09:00 +27°C° 0 mm 1 mps 688 mmHg 46%
    10:00 +28°C° 0 mm 1 mps 689 mmHg 40%
    11:00 +29°C° 0 mm 2 mps 688 mmHg 37%
    12:00 +31°C° 0 mm 3 mps 688 mmHg 33%
    13:00 +33°C° 0 mm 3 mps 688 mmHg 30%
    14:00 +33°C° 0 mm 3 mps 688 mmHg 30%
    15:00 +33°C° 0 mm 4 mps 688 mmHg 29%
    16:00 +34°C° 0 mm 4 mps 687 mmHg 29%
    17:00 +33°C° 0 mm 4 mps 687 mmHg 32%
    18:00 +32°C° 0 mm 5 mps 687 mmHg 36%
    19:00 +30°C° 0 mm 5 mps 687 mmHg 39%
    20:00 +29°C° 0 mm 5 mps 687 mmHg 43%
    21:00 +28°C° 0 mm 5 mps 687 mmHg 48%
    22:00 +27°C° 0 mm 5 mps 688 mmHg 52%
    23:00 +26°C° 0 mm 4 mps 687 mmHg 56%

    30 Agosto, Viernes

    Tiempo Temperatura Precipitaciones Viento Presión Humedad
    00:00 +25°C° 0 mm 3 mps 687 mmHg 59%
    01:00 +25°C° 0 mm 2 mps 687 mmHg 63%
    02:00 +24°C° 0 mm 2 mps 687 mmHg 66%
    03:00 +24°C° 0 mm 1 mps 687 mmHg 68%
    04:00 +24°C° 0 mm 1 mps 687 mmHg 71%
    05:00 +23°C° 0 mm 1 mps 687 mmHg 71%
    06:00 +23°C° 0 mm 1 mps 687 mmHg 71%
    07:00 +23°C° 0 mm 1 mps 687 mmHg 71%
    08:00 +25°C° 0 mm 1 mps 688 mmHg 65%
    09:00 +26°C° 0 mm 1 mps 688 mmHg 58%
    10:00 +27°C° 0 mm 1 mps 688 mmHg 52%
    11:00 +28°C° 0 mm 1 mps 688 mmHg 47%
    12:00 +29°C° 0 mm 1 mps 688 mmHg 42%
    13:00 +30°C° 0 mm 1 mps 688 mmHg 37%
    14:00 +31°C° 0 mm 2 mps 688 mmHg 36%
    15:00 +31°C° 0 mm 3 mps 687 mmHg 35%
    16:00 +32°C° 0 mm 4 mps 687 mmHg 34%
    17:00 +29°C° 0.6 mm 4 mps 687 mmHg 42%
    18:00 +27°C° 0.6 mm 3 mps 687 mmHg 49%
    19:00 +26°C° 0.6 mm 3 mps 686 mmHg 57%
    20:00 +26°C° 0.2 mm 3 mps 687 mmHg 57%
    21:00 +25°C° 0.2 mm 2 mps 687 mmHg 58%
    22:00 +25°C° 0.2 mm 2 mps 688 mmHg 58%
    23:00 +25°C° 0 mm 2 mps 688 mmHg 58%
    Mostrar más